Location: Il Ritiro
(43.4167°N, 13.1333°E)
Time: 15:57:16
(UTC+00:00)

Cosmos 1842 Rocket - Pass Details

Date: 05 July 2020
Orbit: 605 x 634 km, 82.5° (Epoch: 11 August)

Event Time Altitude Azimuth Distance (km) Brightness Sun altitude
Rises 21:41:23 0° 345° (NNW) 2,883 8.5 -20.7°
Reaches altitude 10° 21:43:41 10° 338° (NNW) 1,970 7.3 -20.8°
Maximum altitude 21:47:48 43° 267° (W) 859 4.4 -21.1°
Enters shadow 21:49:03 34° 226° (SW) 1,011 4.4 -21.2°
